Location: Raleigh
(35.7720°N, 78.6390°W)
Time: 17:22:22
(UTC-05:00)

Amateur Radio Satellites - All Passes

Search period start: 29 January 2015 16:52
Search period end: 30 January 2015 16:52
Location: Raleigh, 35.7720°N, 78.6390°W

Satellite Date Start Highest point End Downlink Frequencies (MHz)
Time Altitude Azimuth
AUBIESAT-1 29 Jan 16:56:50 16:58:31 13° 294° (WNW) 17:00:05 437.475
O/OREOS (USA 219) 29 Jan 16:56:52 17:00:52 30° 297° (WNW) 17:04:50 437.305
AO-7 29 Jan 17:17:25 17:23:26 20° 269° (W) 17:29:00 29.400- 29.500
JAS-2 29 Jan 17:29:54 17:34:00 20° 266° (W) 17:37:44 435.910
MOZHAYETS 4 29 Jan 17:45:41 17:49:53 35° 287° (WNW) 17:54:01
Cubesat XI-IV 29 Jan 17:55:43 18:01:01 80° 257° (WSW) 18:06:23 437.490
PRISM 29 Jan 17:57:18 18:00:42 25° 96° (E) 18:04:10 437.425
CUBESAT XI-V 29 Jan 18:02:18 18:05:53 22° 94° (E) 18:09:36 437.345
JUGNU 29 Jan 18:05:22 18:08:49 16° 175° (S) 18:12:19 437.505
YUBILEINY 29 Jan 18:10:13 18:15:15 18° 82° (E) 18:20:50 435.215
CUTE-I 29 Jan 18:15:49 18:20:59 51° 260° (W) 18:26:10 437.470
STRAND 1 29 Jan 18:16:33 18:20:28 22° 94° (E) 18:24:31 437.568
SO-50 29 Jan 18:31:19 18:35:14 24° 49° (NE) 18:39:14 436.795
SRMSAT 29 Jan 18:46:50 18:49:43 14° 171° (S) 18:52:42 437.500
HO-68 29 Jan 18:51:56 18:56:46 21° 61° (ENE) 19:01:52 435.675
SEEDS 29 Jan 19:17:53 19:19:06 11° 67° (ENE) 19:20:34 437.485
PRISM 29 Jan 19:32:52 19:36:09 22° 290° (WNW) 19:39:20 437.425
CUBESAT XI-V 29 Jan 19:39:14 19:43:24 31° 288° (WNW) 19:47:30 437.345
COMPASS 1 29 Jan 19:42:09 19:44:58 18° 70° (ENE) 19:47:55 437.405
JUGNU 29 Jan 19:53:39 19:57:07 16° 185° (S) 20:00:35 437.505
STRAND 1 29 Jan 19:55:04 19:59:48 37° 289° (WNW) 20:04:29 437.568
CANX-2 29 Jan 19:56:22 20:00:24 42° 74° (ENE) 20:04:29 2200.000
CINEMA 3 29 Jan 20:00:57 20:04:17 19° 68° (ENE) 20:07:50 145.822/145.860
YUBILEINY 29 Jan 20:02:31 20:11:12 79° 277° (W) 20:19:58 435.215
GOMX 1 29 Jan 20:05:15 20:10:06 51° 74° (ENE) 20:15:17 467.674
AAUSAT CUBESAT 2 29 Jan 20:07:11 20:10:52 30° 72° (ENE) 20:14:35 437.432
SO-50 29 Jan 20:11:20 20:15:58 41° 246° (WSW) 20:20:33 436.795
BRITE-PL 29 Jan 20:11:53 20:16:52 85° 79° (ENE) 20:22:18 437.365/2234.400
UWE-3 29 Jan 20:14:38 20:16:09 12° 66° (ENE) 20:17:57 435.000/436.395/437.385
DOVE 4 29 Jan 20:15:33 20:20:19 47° 73° (ENE) 20:25:21 437.250
CUTE 1.7 + AOD 2 29 Jan 20:20:11 20:24:29 76° 77° (ENE) 20:28:46 437.475
Oscar 11 29 Jan 20:24:05 20:27:30 24° 71° (ENE) 20:31:00 145.826/435.025
ISS 29 Jan 20:30:33 20:32:53 19° 130° (SE) 20:35:19 145.825
SRMSAT 29 Jan 20:34:27 20:38:11 17° 180° (S) 20:41:55 437.500
HO-68 29 Jan 20:36:47 20:43:54 70° 257° (WSW) 20:51:03 435.675
SEEDS 29 Jan 20:50:21 20:54:32 55° 260° (W) 20:58:43 437.485
UKube-1 29 Jan 20:59:12 21:03:04 34° 72° (ENE) 21:07:01 .
CUBEBUG 2 29 Jan 21:08:34 21:13:11 55° 75° (ENE) 21:17:53 437.445
ZACube-1 29 Jan 21:14:22 21:18:42 43° 74° (ENE) 21:23:05 437.345
HUMSAT D 29 Jan 21:14:40 21:18:00 23° 70° (ENE) 21:21:27 437.325/437.525
COMPASS 1 29 Jan 21:16:41 21:20:30 32° 264° (W) 21:24:17 437.405
DX 1 29 Jan 21:20:07 21:24:25 63° 75° (ENE) 21:28:45 434.975-435.025
AIST 1 29 Jan 21:25:52 21:27:00 11° 70° (ENE) 21:28:26
FUNcube-1 29 Jan 21:25:59 21:30:28 58° 76° (ENE) 21:35:01 145.935
CANX-2 29 Jan 21:34:19 21:36:37 14° 269° (W) 21:38:42 2200.000
DELFI C3 29 Jan 21:34:38 21:38:40 60° 260° (W) 21:42:44 145.870
CINEMA 3 29 Jan 21:36:29 21:41:09 44° 262° (W) 21:45:57 145.822/145.860
AAUSAT CUBESAT 2 29 Jan 21:43:36 21:46:36 18° 267° (W) 21:49:29 437.432
GOMX 1 29 Jan 21:45:25 21:48:40 16° 271° (W) 21:51:46 467.674
AISAT 29 Jan 21:47:06 21:51:19 44° 73° (ENE) 21:55:36 437.250
UWE-3 29 Jan 21:47:34 21:52:13 66° 260° (W) 21:56:55 435.000/436.395/437.385
ESTCUBE 1 29 Jan 21:52:33 21:55:52 21° 70° (ENE) 21:59:19 437.505/2401.250
ANTELSAT 29 Jan 21:54:04 21:56:39 16° 91° (E) 21:59:23 437.575/2403.000
DOVE 4 29 Jan 21:54:58 21:58:25 18° 270° (W) 22:01:46 437.250
Oscar 11 29 Jan 21:59:56 22:03:36 26° 265° (W) 22:07:12 145.826/435.025
TIGRISAT 29 Jan 22:01:09 22:04:11 19° 92° (E) 22:07:18 435.000
YUBILEINY 29 Jan 22:05:39 22:09:48 13° 299° (WNW) 22:13:15 435.215
ISS 29 Jan 22:06:12 22:09:13 34° 324° (NW) 22:12:16 145.825
NANOSAT C BR1 29 Jan 22:06:36 22:08:07 12° 90° (E) 22:09:53 145.865
VELOX 1 29 Jan 22:14:51 22:19:17 88° 264° (W) 22:23:46 145.980
QB50P2 29 Jan 22:20:02 22:22:57 18° 93° (E) 22:26:00 145.880/145.840
50 SAT 29 Jan 22:20:44 22:24:52 80° 257° (WSW) 22:29:02 437.505
CUBEBUG 1 29 Jan 22:22:00 22:26:03 41° 73° (ENE) 22:30:11 437.445
SRMSAT 29 Jan 22:23:52 22:26:38 13° 190° (S) 22:29:19 437.500
QB50P1 29 Jan 22:28:49 22:32:11 23° 94° (E) 22:35:38 145.935-145.965
UKube-1 29 Jan 22:36:23 22:39:23 18° 267° (W) 22:42:13 .
BUGSAT 1 29 Jan 22:37:49 22:41:07 22° 94° (E) 22:44:31 437.445
TISAT 1 29 Jan 22:42:22 22:44:45 15° 68° (ENE) 22:47:19 437.305
POLYITAN 1 29 Jan 22:43:33 22:47:29 34° 97° (E) 22:51:25 437.675
CUBEBUG 2 29 Jan 22:47:55 22:50:18 13° 271° (W) 22:52:24 437.445
HUMSAT D 29 Jan 22:49:57 22:53:41 27° 265° (W) 22:57:23 437.325/437.525
ZACube-1 29 Jan 22:52:27 22:55:20 16° 269° (W) 22:58:01 437.345
UNISAT 6 29 Jan 22:53:15 22:57:42 81° 102° (ESE) 23:02:01 437.425
AIST 1 29 Jan 23:00:51 23:05:06 52° 266° (W) 23:09:21
POPSAT HIP 1 29 Jan 23:03:02 23:07:18 59° 100° (E) 23:11:31 437.405
DUCHIFAT 1 29 Jan 23:05:21 23:09:37 63° 100° (E) 23:13:51 145.980
FUNcube-1 29 Jan 23:05:32 23:07:16 12° 271° (W) 23:08:41 145.935
AISAT 29 Jan 23:25:48 23:28:15 14° 269° (W) 23:30:28 437.250
ESTCUBE 1 29 Jan 23:28:38 23:32:37 30° 264° (W) 23:36:34 437.505/2401.250
ANTELSAT 29 Jan 23:29:34 23:33:42 38° 287° (WNW) 23:37:41 437.575/2403.000
TIGRISAT 29 Jan 23:37:06 23:41:05 32° 288° (WNW) 23:44:54 435.000
BEESAT 29 Jan 23:39:50 23:40:35 10° 64° (ENE) 23:41:38 436.000
NANOSAT C BR1 29 Jan 23:40:11 23:44:21 48° 286° (WNW) 23:48:27 145.865
SPROUT 29 Jan 23:40:52 23:45:09 77° 77° (ENE) 23:49:30 437.525
ITUPSAT 1 29 Jan 23:43:25 23:44:49 11° 65° (ENE) 23:46:30 437.325
QB50P2 29 Jan 23:55:07 23:58:58 32° 288° (WNW) 00:02:46 145.880/145.840
CUBEBUG 1 30 Jan 00:00:11 00:02:41 15° 269° (W) 00:05:01 437.445
QB50P1 30 Jan 00:04:27 00:08:04 26° 289° (WNW) 00:11:34 145.935-145.965
GONETS M04 30 Jan 00:11:08 00:17:43 26° 85° (E) 00:24:37
BUGSAT 1 30 Jan 00:12:59 00:16:37 27° 289° (WNW) 00:20:10 437.445
TISAT 1 30 Jan 00:16:18 00:20:17 39° 262° (W) 00:24:18 437.305
POLYITAN 1 30 Jan 00:20:15 00:23:12 18° 291° (WNW) 00:25:59 437.675
Oscar 19 30 Jan 00:32:18 00:34:35 13° 90° (E) 00:37:11 437.125/150
POPSAT HIP 1 30 Jan 00:41:33 00:42:45 11° 294° (WNW) 00:43:42 437.405
DUCHIFAT 1 30 Jan 00:44:21 00:45:01 10° 294° (WNW) 00:45:24 145.980
SWISSCUBE 30 Jan 00:57:28 01:02:13 81° 78° (ENE) 01:07:00 437.505
BEESAT 30 Jan 01:13:09 01:17:54 74° 258° (WSW) 01:22:41 436.000
ITUPSAT 1 30 Jan 01:17:29 01:22:13 68° 258° (WSW) 01:26:59 437.325
STARS 30 Jan 01:17:47 01:20:00 14° 67° (ENE) 01:22:27 437.465
KKS-1 30 Jan 01:24:05 01:27:44 26° 70° (ENE) 01:31:29 437.445
O/OREOS (USA 219) 30 Jan 01:30:16 01:34:07 26° 62° (ENE) 01:38:02 437.305
M-CUBED/EXP-1 PRIME 30 Jan 01:36:07 01:38:01 13° 66° (ENE) 01:40:01 437.505
BEESAT 2 30 Jan 01:38:23 01:42:11 38° 114° (ESE) 01:46:05 435.950
AIST 2 30 Jan 01:39:17 01:41:41 15° 110° (ESE) 01:44:17 435.215
Gurwin Techsat 1B 30 Jan 01:49:37 01:53:13 19° 92° (E) 01:57:01 435.225
BEESAT 3 30 Jan 01:51:32 01:55:34 65° 117° (ESE) 01:59:41 437.485
GONETS M04 30 Jan 02:05:23 02:14:02 60° 281° (W) 02:22:38
AUBIESAT-1 30 Jan 02:07:09 02:10:34 28° 69° (ENE) 02:13:49 437.475
Oscar 19 30 Jan 02:09:22 02:14:26 60° 286° (WNW) 02:19:28 437.125/150
ITAMSAT 1 30 Jan 02:26:51 02:32:04 67° 101° (E) 02:37:16 435.822/435.867
STARS 30 Jan 02:51:50 02:56:08 48° 261° (W) 03:00:27 437.465
PCSat 30 Jan 02:54:57 02:58:06 16° 106° (ESE) 03:01:31 145.827
KKS-1 30 Jan 03:00:36 03:04:21 25° 265° (W) 03:08:01 437.445
ISS 30 Jan 03:01:00 03:02:18 12° 23° (NNE) 03:03:38 145.825
HORYU 2 30 Jan 03:07:50 03:11:49 32° 97° (E) 03:15:49 437.375
M-CUBED/EXP-1 PRIME 30 Jan 03:08:55 03:12:49 40° 256° (WSW) 03:16:25 437.505
O/OREOS (USA 219) 30 Jan 03:09:40 03:13:30 25° 257° (WSW) 03:17:13 437.305
MOZHAYETS 4 30 Jan 03:10:00 03:12:04 13° 67° (ENE) 03:14:23
AIST 2 30 Jan 03:15:57 03:19:59 42° 304° (NW) 03:24:05 435.215
BEESAT 2 30 Jan 03:17:39 03:20:35 18° 311° (NW) 03:23:28 435.950
DANDE 30 Jan 03:21:29 03:28:22 33° 88° (E) 03:35:54 436.750
AO-7 30 Jan 03:27:12 03:34:05 29° 95° (E) 03:41:09 29.400- 29.500
Gurwin Techsat 1B 30 Jan 03:28:24 03:33:29 46° 288° (WNW) 03:38:31 435.225
BEESAT 3 30 Jan 03:32:26 03:34:12 12° 315° (NW) 03:35:50 437.485
RS-15 30 Jan 03:40:34 03:49:58 36° 108° (ESE) 03:59:38 29.354- 29.394
AUBIESAT-1 30 Jan 03:42:39 03:45:31 18° 260° (W) 03:48:07 437.475
CUSAT 1 30 Jan 03:45:27 03:53:16 57° 93° (E) 04:01:30 437.405
ITAMSAT 1 30 Jan 04:08:22 04:11:05 14° 295° (WNW) 04:13:32 435.822/435.867
PCSat 30 Jan 04:35:47 04:41:06 57° 300° (WNW) 04:46:27 145.827
ISS 30 Jan 04:36:00 04:39:18 73° 40° (NE) 04:42:35 145.825
JAS-2 30 Jan 04:38:18 04:43:57 51° 100° (E) 04:50:21 435.910
MOZHAYETS 4 30 Jan 04:44:25 04:48:55 53° 261° (W) 04:53:25
HORYU 2 30 Jan 04:45:03 04:48:19 20° 291° (WNW) 04:51:25 437.375
PRISM 30 Jan 04:46:44 04:48:40 13° 68° (ENE) 04:50:48 437.425
DANDE 30 Jan 05:03:35 05:11:32 54° 284° (WNW) 05:19:58 436.750
CUBESAT XI-V 30 Jan 05:04:04 05:06:46 16° 68° (ENE) 05:09:40 437.345
AO-7 30 Jan 05:19:11 05:27:16 55° 292° (WNW) 05:35:14 29.400- 29.500
CUSAT 1 30 Jan 05:29:30 05:36:43 32° 290° (WNW) 05:43:54 437.405
STRAND 1 30 Jan 05:29:53 05:33:53 25° 69° (ENE) 05:38:02 437.568
RS-15 30 Jan 05:51:11 06:01:55 57° 307° (NW) 06:12:41 29.354- 29.394
Cubesat XI-IV 30 Jan 06:16:01 06:21:17 53° 100° (E) 06:26:32 437.490
YUBILEINY 30 Jan 06:16:25 06:24:43 46° 76° (ENE) 06:33:06 435.215
PRISM 30 Jan 06:19:59 06:23:53 42° 261° (W) 06:27:48 437.425
JAS-2 30 Jan 06:24:30 06:28:53 22° 291° (WNW) 06:33:24 435.910
CUTE-I 30 Jan 06:35:40 06:41:03 81° 103° (ESE) 06:46:27 437.470
CUBESAT XI-V 30 Jan 06:39:31 06:43:55 43° 262° (W) 06:48:19 437.345
STRAND 1 30 Jan 07:08:20 07:12:57 34° 263° (W) 07:17:33 437.568
VERMONT LUNAR 30 Jan 07:16:04 07:18:59 26° 148° (SSE) 07:21:58 437.305
Cubesat XI-IV 30 Jan 07:57:22 08:01:00 18° 294° (WNW) 08:04:26 437.490
HO-68 30 Jan 08:08:26 08:14:09 26° 94° (E) 08:20:05 435.675
CUTE 1.7 + AOD 2 30 Jan 08:09:55 08:12:24 16° 92° (E) 08:15:05 437.475
RS-15 30 Jan 08:10:32 08:17:36 18° 336° (NNW) 08:24:23 29.354- 29.394
GOMX 1 30 Jan 08:11:22 08:15:16 21° 91° (E) 08:19:11 467.674
YUBILEINY 30 Jan 08:13:38 08:21:22 35° 273° (W) 08:28:56 435.215
CUTE-I 30 Jan 08:18:29 08:20:32 12° 297° (WNW) 08:22:15 437.470
DOVE 4 30 Jan 08:19:26 08:22:36 17° 89° (E) 08:25:53 437.250
BRITE-PL 30 Jan 08:20:09 08:25:23 39° 96° (E) 08:30:24 437.365/2234.400
PHONESAT 2.4 30 Jan 08:20:12 08:23:39 45° 152° (SSE) 08:27:07 2401.200-2431.200
SEEDS 30 Jan 08:38:14 08:41:53 29° 96° (E) 08:45:33 437.485
SO-50 30 Jan 08:45:51 08:47:19 12° 108° (ESE) 08:49:05 436.795
ANTELSAT 30 Jan 08:51:39 08:53:21 12° 66° (ENE) 08:55:20 437.575/2403.000
VERMONT LUNAR 30 Jan 08:53:29 08:56:56 66° 341° (NNW) 09:00:25 437.305
TIGRISAT 30 Jan 08:58:06 09:00:26 14° 67° (ENE) 09:03:00 435.000
COMPASS 1 30 Jan 09:03:01 09:07:03 48° 99° (E) 09:11:04 437.405
CUBEBUG 2 30 Jan 09:04:53 09:07:08 14° 90° (E) 09:09:35 437.445
QB50P2 30 Jan 09:12:56 09:13:33 10° 66° (ENE) 09:14:26 145.880/145.840
DX 1 30 Jan 09:13:09 09:15:18 14° 91° (E) 09:17:41 434.975-435.025
DELFI C3 30 Jan 09:18:28 09:21:35 22° 94° (E) 09:24:48 145.870
FUNcube-1 30 Jan 09:19:40 09:21:41 13° 90° (E) 09:23:55 145.935
CANX-2 30 Jan 09:20:23 09:24:34 62° 284° (WNW) 09:28:42 2200.000
QB50P1 30 Jan 09:20:36 09:22:27 13° 67° (ENE) 09:24:31 145.935-145.965
BUGSAT 1 30 Jan 09:27:45 09:28:43 11° 67° (ENE) 09:29:57 437.445
AAUSAT CUBESAT 2 30 Jan 09:28:26 09:32:36 87° 100° (E) 09:36:44 437.432
CINEMA 3 30 Jan 09:34:46 09:39:31 59° 100° (E) 09:44:01 145.822/145.860
POLYITAN 1 30 Jan 09:34:50 09:37:52 19° 69° (ENE) 09:41:01 437.675
UWE-3 30 Jan 09:41:22 09:45:17 31° 95° (E) 09:49:10 435.000/436.395/437.385
AISAT 30 Jan 09:43:38 09:44:43 11° 90° (E) 09:46:05 437.250
CUTE 1.7 + AOD 2 30 Jan 09:44:39 09:48:31 35° 287° (WNW) 09:52:20 437.475
GOMX 1 30 Jan 09:48:34 09:53:37 41° 288° (WNW) 09:58:23 467.674
UNISAT 6 30 Jan 09:49:04 09:53:37 51° 74° (ENE) 09:58:12 437.425
Oscar 11 30 Jan 09:49:24 09:53:42 70° 101° (E) 09:57:58 145.826/435.025
POPSAT HIP 1 30 Jan 09:53:29 09:57:14 31° 72° (ENE) 10:01:03 437.405
HO-68 30 Jan 09:55:18 10:02:12 52° 290° (WNW) 10:09:02 435.675
DUCHIFAT 1 30 Jan 09:55:28 09:59:13 32° 72° (ENE) 10:03:05 145.980
DOVE 4 30 Jan 09:55:46 10:00:43 47° 287° (WNW) 10:05:23 437.250
PHONESAT 2.4 30 Jan 09:58:42 10:02:14 50° 347° (NNW) 10:05:46 2401.200-2431.200
BRITE-PL 30 Jan 09:59:03 10:03:39 26° 292° (WNW) 10:07:58 437.365/2234.400
BEESAT 2 30 Jan 10:02:21 10:04:06 13° 45° (NE) 10:06:01 435.950
50 SAT 30 Jan 10:04:25 10:06:56 16° 92° (E) 10:09:35 437.505
VELOX 1 30 Jan 10:09:17 10:12:45 22° 94° (E) 10:16:17 145.980
BEESAT 3 30 Jan 10:14:30 10:17:23 18° 49° (NE) 10:20:19 437.485
SEEDS 30 Jan 10:14:30 10:17:34 19° 290° (WNW) 10:20:29 437.485
SO-50 30 Jan 10:22:52 10:27:21 62° 302° (WNW) 10:32:02 436.795
ANTELSAT 30 Jan 10:25:01 10:29:42 64° 259° (W) 10:34:23 437.575/2403.000
UKube-1 30 Jan 10:25:20 10:29:43 85° 284° (WNW) 10:34:04 .
NANOSAT C BR1 30 Jan 10:29:45 10:34:01 85° 80° (E) 10:38:20 145.865
RS-15 30 Jan 10:31:21 10:36:28 14° 13° (NNE) 10:41:58 29.354- 29.394
VERMONT LUNAR 30 Jan 10:32:06 10:35:22 36° 359° (N) 10:38:38 437.305
TIGRISAT 30 Jan 10:32:11 10:36:48 54° 260° (W) 10:41:25 435.000
HUMSAT D 30 Jan 10:36:49 10:41:00 60° 100° (E) 10:45:06 437.325/437.525
CUBEBUG 2 30 Jan 10:39:51 10:44:12 44° 286° (WNW) 10:48:20 437.445
COMPASS 1 30 Jan 10:40:40 10:42:24 12° 292° (WNW) 10:43:57 437.405
ZACube-1 30 Jan 10:42:28 10:46:49 59° 285° (WNW) 10:51:01 437.345
QB50P2 30 Jan 10:44:47 10:49:01 61° 259° (W) 10:53:18 145.880/145.840
DX 1 30 Jan 10:47:38 10:51:51 44° 287° (WNW) 10:56:01 434.975-435.025
DELFI C3 30 Jan 10:53:32 10:56:48 23° 289° (WNW) 10:59:58 145.870
QB50P1 30 Jan 10:53:51 10:57:59 48° 261° (W) 11:02:09 145.935-145.965
FUNcube-1 30 Jan 10:54:11 10:58:22 43° 286° (WNW) 11:02:25 145.935
BUGSAT 1 30 Jan 10:59:48 11:03:48 53° 260° (W) 11:07:53 437.445
POLYITAN 1 30 Jan 11:09:47 11:13:37 31° 263° (W) 11:17:28 437.675
CINEMA 3 30 Jan 11:13:56 11:16:12 13° 295° (WNW) 11:18:11 145.822/145.860
AISAT 30 Jan 11:17:20 11:21:47 58° 285° (WNW) 11:26:11 437.250
UWE-3 30 Jan 11:18:21 11:21:40 20° 291° (WNW) 11:24:48 435.000/436.395/437.385
ESTCUBE 1 30 Jan 11:23:39 11:28:11 68° 101° (E) 11:32:42 437.505/2401.250
AIST 1 30 Jan 11:27:14 11:31:28 76° 277° (W) 11:35:45
UNISAT 6 30 Jan 11:28:13 11:30:45 14° 270° (W) 11:33:02 437.425
POPSAT HIP 1 30 Jan 11:30:06 11:33:13 19° 267° (W) 11:36:13 437.405
SPROUT 30 Jan 11:31:50 11:34:34 17° 92° (E) 11:37:28 437.525
DUCHIFAT 1 30 Jan 11:32:12 11:35:12 18° 267° (W) 11:38:05 145.980
PHONESAT 2.4 30 Jan 11:37:46 11:41:11 38° 4° (N) 11:44:38 2401.200-2431.200
50 SAT 30 Jan 11:38:35 11:42:10 30° 288° (WNW) 11:45:40 437.505
BEESAT 2 30 Jan 11:38:41 11:42:48 63° 243° (WSW) 11:46:51 435.950
AIST 2 30 Jan 11:40:24 11:44:34 51° 57° (ENE) 11:48:40 435.215
VELOX 1 30 Jan 11:45:26 11:49:21 29° 289° (WNW) 11:53:11 145.980
Oscar 19 30 Jan 11:46:24 11:49:24 16° 66° (ENE) 11:52:37 437.125/150
CUBEBUG 1 30 Jan 11:49:49 11:54:15 64° 284° (WNW) 11:58:38 437.445
BEESAT 3 30 Jan 11:51:50 11:55:42 37° 246° (WSW) 11:59:28 437.485
TISAT 1 30 Jan 12:03:59 12:08:00 38° 98° (E) 12:12:01 437.305
VERMONT LUNAR 30 Jan 12:10:21 12:13:49 56° 16° (NNE) 12:17:17 437.305
GONETS M04 30 Jan 12:19:04 12:27:38 61° 79° (E) 12:36:13
RS-15 30 Jan 12:43:27 12:53:39 38° 45° (NE) 13:04:27 29.354- 29.394
SWISSCUBE 30 Jan 13:01:23 13:05:21 26° 95° (E) 13:09:24 437.505
ESTCUBE 1 30 Jan 13:03:38 13:04:35 10° 294° (WNW) 13:05:13 437.505/2401.250
SPROUT 30 Jan 13:06:50 13:10:50 35° 287° (WNW) 13:14:45 437.525
Gurwin Techsat 1B 30 Jan 13:07:58 13:12:01 24° 68° (ENE) 13:16:13 435.225
PHONESAT 2.4 30 Jan 13:16:22 13:20:01 83° 23° (NNE) 13:23:40 2401.200-2431.200
BEESAT 30 Jan 13:16:39 13:21:01 35° 97° (E) 13:25:24 436.000
AIST 2 30 Jan 13:20:56 13:22:47 12° 251° (WSW) 13:24:25 435.215
ITUPSAT 1 30 Jan 13:21:15 13:25:42 38° 98° (E) 13:30:11 437.325
Oscar 19 30 Jan 13:23:15 13:28:21 56° 259° (W) 13:33:28 437.125/150
PCSat 30 Jan 13:26:28 13:31:51 61° 61° (ENE) 13:37:12 145.827
TISAT 1 30 Jan 13:40:53 13:43:33 16° 292° (WNW) 13:46:03 437.305
ITAMSAT 1 30 Jan 13:41:58 13:47:07 75° 76° (ENE) 13:52:19 435.822/435.867
VERMONT LUNAR 30 Jan 13:48:38 13:51:51 34° 211° (SSW) 13:55:05 437.305
HORYU 2 30 Jan 14:04:02 14:07:29 23° 70° (ENE) 14:11:03 437.375
DANDE 30 Jan 14:11:34 14:15:00 16° 60° (ENE) 14:18:13 436.750
GONETS M04 30 Jan 14:17:10 14:23:56 25° 275° (W) 14:30:21
AO-7 30 Jan 14:23:14 14:30:18 33° 62° (ENE) 14:37:33 29.400- 29.500
CUSAT 1 30 Jan 14:33:00 14:37:51 27° 68° (ENE) 14:41:43 437.405
SWISSCUBE 30 Jan 14:39:07 14:43:12 28° 290° (WNW) 14:47:13 437.505
STARS 30 Jan 14:44:47 14:48:56 38° 98° (E) 14:53:04 437.465
Gurwin Techsat 1B 30 Jan 14:46:52 14:51:48 38° 263° (W) 14:56:43 435.225
JAS-2 30 Jan 14:51:43 14:53:55 13° 65° (ENE) 14:56:22 435.910
KKS-1 30 Jan 14:53:49 14:58:19 78° 102° (ESE) 15:02:47 437.445
M-CUBED/EXP-1 PRIME 30 Jan 14:54:50 14:56:25 13° 99° (E) 14:58:11 437.505
BEESAT 30 Jan 14:55:03 14:58:40 21° 292° (WNW) 15:02:11 436.000
PHONESAT 2.4 30 Jan 14:55:32 14:58:20 21° 214° (SW) 15:01:05 2401.200-2431.200
RS-15 30 Jan 14:55:32 15:06:51 65° 246° (WSW) 15:18:35 29.354- 29.394
ITUPSAT 1 30 Jan 14:59:54 15:03:22 20° 292° (WNW) 15:06:42 437.325
PCSat 30 Jan 15:11:40 15:14:49 15° 254° (WSW) 15:17:39 145.827
AUBIESAT-1 30 Jan 15:25:42 15:28:42 30° 103° (ESE) 15:31:51 437.475
ITAMSAT 1 30 Jan 15:26:13 15:27:18 10° 272° (W) 15:27:59 435.822/435.867
O/OREOS (USA 219) 30 Jan 15:39:10 15:43:28 51° 107° (ESE) 15:47:52 437.305
HORYU 2 30 Jan 15:40:05 15:44:02 29° 264° (W) 15:47:56 437.375
DANDE 30 Jan 15:53:23 15:59:30 56° 267° (W) 16:03:57 436.750
JUGNU 30 Jan 16:04:15 16:05:35 11° 167° (SSE) 16:07:01 437.505
AO-7 30 Jan 16:14:40 16:22:48 53° 259° (WSW) 16:30:55 29.400- 29.500
CUSAT 1 30 Jan 16:16:10 16:20:45 25° 274° (W) 16:24:18 437.405
CUTE-I 30 Jan 16:19:04 16:20:34 11° 63° (ENE) 16:22:24 437.470
STARS 30 Jan 16:22:11 16:25:09 17° 292° (WNW) 16:27:57 437.465
M-CUBED/EXP-1 PRIME 30 Jan 16:28:38 16:31:31 26° 291° (WNW) 16:34:26 437.505
JAS-2 30 Jan 16:33:07 16:38:40 66° 258° (WSW) 16:43:53 435.910
MOZHAYETS 4 30 Jan 16:42:32 16:46:53 43° 98° (E) 16:51:15
